Dewpoint
14 15 15 13 16 18 18 13 12 13 13 12 12 13 14 14 15 16 16 16 11 10 11 10 6 5 4 3 2 3 5 6 8 8 7 7 6 5 7 9 10 11 11 10 8 7 8 7 6
14 16 13 12 17 18 17 14 11 13 12 12 13 13 14 16 17 17 17 15 10 10 9 7 5 4 3 2 1 1 3 4 4 4 4 4 6 9 10 9 10 10 9 11 11 11 12 11 10
13 15 15 17 17 18 17 15 13 12 12 12 12 13 15 17 17 17 16 12 11 11 9 8 5 4 3 3 2 2 3 4 5 4 4 3 6 8 9 10 11 9 9 10 11 11 11 12 12
14 15 16 17 18 16 18 16 13 13 14 14 13 13 14 15 14 15 16 13 12 12 12 11 8 7 4 3 3 3 3 4 4 4 4 5 8 10 10 11 10 8 10 9 10 10 12 11 12
14 13 17 17 17 16 16 15 14 14 14 13 13 14 15 15 15 15 16 14 13 13 14 13 11 9 8 7 7 5 5 6 6 5 6 9 10 10 10 11 11 9 10 8 8 10 12 11 11
15 14 16 17 16 15 15 14 14 14 14 13 14 14 14 15 14 15 15 13 12 13 14 13 13 13 12 12 13 13 12 11 10 8 9 10 10 11 11 10 10 11 10 9 7 9 11 11 11
13 15 15 14 15 15 14 14 14 14 16 15 14 15 15 16 15 14 14 13 10 10 11 13 14 13 13 13 13 13 12 11 10 10 10 10 10 11 10 10 11 11 11 10 8 9 11 12 11
11 12 13 15 15 14 11 14 13 15 16 13 14 16 14 15 15 14 15 11 9 10 10 11 13 13 12 12 12 11 10 10 10 10 11 11 10 9 9 11 11 11 11 11 8 10 11 11 11
10 12 13 13 14 13 11 15 15 15 15 15 13 15 14 15 15 15 14 11 11 11 11 11 10 10 11 11 12 11 11 11 11 12 12 11 11 9 11 12 12 12 13 13 11 8 10 11 10
8 10 9 10 11 12 12 14 15 15 16 16 13 15 15 15 15 15 14 14 13 13 12 11 11 11 12 13 13 13 12 11 10 10 11 11 10 9 13 14 14 14 13 13 13 11 10 11 8
7 7 8 7 10 10 11 12 13 15 16 14 12 14 15 15 15 14 14 14 14 14 14 12 12 12 12 12 13 13 12 11 11 9 12 13 14 14 15 14 13 13 13 14 13 12 10 11 11
4 2 6 7 6 10 11 11 12 13 12 11 10 15 15 15 15 14 14 15 15 14 14 13 12 12 12 12 13 13 13 12 12 9 13 14 13 14 14 12 14 13 13 14 14 12 9 9 8
3 2 4 5 5 8 8 11 12 13 12 12 13 14 15 14 15 14 14 14 14 14 14 14 14 14 14 12 13 13 13 13 12 9 14 12 12 13 13 13 12 10 13 14 12 10 11 10 12
-0 1 4 4 5 7 9 10 11 14 13 11 12 15 14 14 14 14 14 14 14 14 14 14 14 14 13 12 15 13 14 13 13 11 13 13 14 13 14 13 11 12 13 13 14 13 11 11 12
0 1 2 0 -2 5 8 10 12 13 13 11 12 14 14 14 14 14 13 13 13 14 14 14 14 15 13 13 15 14 15 14 13 13 11 15 15 14 12 11 13 13 13 13 13 14 13 14 12
2 2 5 4 -1 -1 1 5 10 13 14 14 13 13 14 14 14 14 13 13 14 14 14 14 14 14 14 14 14 15 15 14 14 14 12 11 13 14 13 11 13 14 14 14 13 13 14 14 14
3 4 6 3 1 -1 -2 0 8 12 13 14 14 14 14 13 14 14 14 14 14 14 14 14 14 14 14 14 15 14 14 14 15 15 13 13 13 14 14 13 13 13 13 14 14 14 14 9 14
4 5 4 4 2 0 -2 -2 7 8 10 11 12 13 12 12 13 14 14 14 13 14 14 14 14 14 14 14 14 14 14 15 15 14 14 14 15 14 14 13 13 13 14 13 14 13 14 14 14
-1 -1 -2 -2 2 -1 -0 -1 6 8 7 10 11 12 11 12 12 12 13 13 13 14 15 14 14 14 15 15 15 14 13 15 14 15 15 15 16 13 11 12 12 13 14 13 15 14 14 14 13
-3 -4 -4 -3 -0 -2 -0 1 1 7 7 8 10 11 11 11 11 12 12 13 13 13 14 14 14 14 15 14 15 14 14 14 14 15 14 15 15 11 10 11 11 13 14 15 14 15 14 13 14
-6 -5 -4 -4 -3 -3 -1 2 5 4 7 6 10 11 11 11 11 11 11 12 13 14 14 14 13 14 14 14 15 15 14 14 14 15 15 14 14 14 13 12 11 12 12 13 14 14 13 14 13
-6 -8 -4 -1 -0 1 -1 3 2 1 2 6 8 11 11 11 11 11 11 11 11 11 12 13 13 13 14 14 15 14 14 14 14 15 14 14 15 14 14 13 13 13 13 12 13 12 14 14 13
-7 -8 -4 -1 3 2 1 2 2 3 1 2 4 10 11 11 11 11 11 11 11 11 12 12 13 13 13 14 14 15 15 13 14 15 15 14 15 14 13 15 14 11 11 11 12 13 14 14 14
-7 -5 -2 6 7 7 4 4 5 4 2 2 1 2 10 11 11 11 11 11 11 12 12 12 13 13 14 14 14 15 15 13 15 15 15 14 14 14 13 12 14 12 13 14 13 11 12 15 14
-5 -3 1 7 10 9 7 5 4 2 1 7 12 10 10 11 11 11 12 12 12 12 12 13 13 13 14 14 15 14 14 13 14 15 15 14 15 15 15 13 13 15 14 13 13 13 13 12 13
-3 -3 1 4 10 7 5 5 5 10 11 12 11 11 13 13 12 13 12 12 12 12 12 12 13 13 14 14 14 13 14 13 15 15 15 14 14 14 15 14 14 14 15 13 12 13 13 12 12
-3 -0 -2 0 3 5 7 6 3 8 11 11 11 11 12 14 13 13 15 12 12 12 12 12 13 13 14 14 14 12 11 11 11 14 14 13 15 15 15 15 15 14 14 14 13 11 13 14 14
-3 -3 1 1 4 7 9 8 6 11 13 12 11 9 11 12 15 15 16 11 12 13 14 14 14 14 14 14 14 14 12 10 11 12 14 13 13 14 15 15 15 15 15 14 13 13 11 13 14
-2 -1 -1 3 4 7 10 10 8 12 14 13 11 8 10 14 15 14 13 16 11 12 14 13 12 14 15 15 15 16 15 14 12 12 13 13 15 14 14 14 15 14 15 15 14 13 12 13 11
-5 -3 1 5 5 3 6 9 7 11 12 15 15 12 14 14 14 14 12 13 15 15 15 17 8 17 16 15 13 16 16 16 16 14 12 13 14 14 15 14 14 15 16 15 15 15 14 13 14
Wind_Speed
7 5 8 10 5 4 5 3 9 9 4 14 15 8 6 6 3 3 21 27 29 28 26 25 25 25 25 24 24 24 24 23 22 21 20 19 17 16 14 12 10 8 8 8 9 9 9 8 8
12 8 17 8 4 4 5 10 8 13 17 25 23 18 12 3 11 21 32 24 28 28 27 25 25 24 24 24 23 23 23 23 22 21 19 17 15 14 12 8 7 7 8 8 8 8 9 9 9
8 15 9 4 3 1 3 9 16 19 18 14 10 16 10 10 22 32 26 32 29 28 26 24 23 23 23 22 21 22 21 20 19 18 15 13 12 10 8 6 6 8 8 8 7 8 8 10 10
2 5 6 4 7 5 2 7 8 16 11 16 6 6 10 10 30 25 27 30 29 28 25 24 23 22 22 21 21 21 19 17 15 14 13 12 9 7 6 6 7 7 6 7 7 7 7 9 11
3 3 3 1 7 9 7 9 8 11 8 6 6 10 13 14 22 28 26 26 29 27 25 24 24 23 22 21 19 19 17 15 13 13 12 10 8 7 6 7 7 7 6 6 7 7 8 9 10
3 2 4 1 2 12 12 12 22 22 18 18 16 9 5 27 28 26 24 24 24 26 25 23 22 21 20 19 18 18 17 15 13 12 10 8 7 6 7 7 6 5 5 5 6 8 9 9 10
6 4 3 3 3 5 6 11 17 19 16 7 10 5 19 33 30 27 23 20 23 22 23 23 22 21 19 18 17 16 14 13 11 10 9 7 7 8 9 8 5 5 4 4 6 8 10 9 9
5 4 3 2 3 1 2 10 24 19 6 14 19 6 18 31 34 28 22 22 23 20 19 21 21 20 19 18 16 15 14 13 10 9 8 7 7 8 8 6 5 4 3 4 5 7 8 10 8
8 4 3 5 5 4 7 7 4 8 13 8 7 19 18 37 36 32 27 25 22 19 17 19 21 20 20 17 14 13 13 13 11 9 9 8 8 8 7 5 4 4 4 5 5 7 7 9 10
5 4 3 6 7 6 14 17 13 6 7 2 10 20 30 36 37 34 29 26 22 19 16 17 19 20 17 12 13 13 15 15 13 10 10 9 10 10 9 7 5 4 4 4 6 9 9 10 11
5 5 5 6 13 16 11 14 11 19 4 13 25 27 34 36 36 32 28 24 21 17 17 17 18 17 15 12 13 13 15 14 15 13 11 12 9 7 5 2 0 2 4 4 7 8 9 8 9
7 6 8 9 8 15 9 15 8 16 6 13 25 35 33 33 39 31 28 26 24 21 17 17 17 12 13 11 11 11 11 16 14 15 12 11 4 6 4 3 5 6 6 6 5 7 9 6 9
6 5 9 14 10 15 14 11 8 10 15 19 29 27 33 39 35 33 29 26 23 22 20 18 18 13 11 12 9 12 9 14 16 16 13 10 7 4 4 4 9 8 10 8 7 9 8 6 4
6 3 5 10 12 14 9 6 11 16 25 27 35 32 38 44 38 35 32 29 26 22 21 18 16 12 10 13 8 11 9 13 17 17 13 9 6 5 3 4 8 12 12 9 7 6 6 6 8
13 1 2 2 5 5 20 1 7 31 32 33 39 38 40 43 40 38 36 31 25 24 22 20 17 17 14 12 9 10 10 10 13 14 14 12 7 4 2 8 11 15 12 10 9 5 3 2 3
5 3 3 5 4 6 8 5 6 35 31 31 34 38 38 38 42 37 35 29 27 24 26 22 20 19 15 14 12 10 7 9 9 14 17 15 12 8 6 7 12 11 10 9 9 6 2 4 4
5 5 2 1 7 4 4 5 8 35 30 29 31 37 35 34 40 39 36 31 29 27 26 24 21 21 16 12 11 10 10 8 8 13 20 16 14 9 8 8 8 7 9 10 9 9 4 2 5
6 4 0 5 7 4 4 4 8 29 26 28 30 32 33 35 39 39 36 32 30 30 27 24 23 21 17 15 11 9 13 10 9 12 18 17 13 11 10 11 10 10 12 11 9 7 6 6 8
7 2 2 3 7 6 7 6 8 21 20 21 26 33 36 33 33 33 36 35 32 31 32 28 25 25 21 20 18 13 15 14 13 13 17 16 13 14 17 16 16 16 13 12 10 7 7 8 5
1 2 4 5 4 3 3 7 9 12 21 27 32 32 37 33 29 35 35 37 35 33 33 31 28 27 24 20 19 15 13 15 12 10 19 16 14 15 14 14 15 17 16 11 10 9 7 7 7
2 2 6 6 3 3 1 9 7 7 20 23 34 43 39 40 35 36 36 38 34 35 35 33 31 27 24 21 19 16 16 17 16 17 23 19 19 17 14 15 19 15 15 11 9 10 11 9 8
2 4 8 5 3 2 4 5 7 4 7 14 22 29 35 39 38 38 38 38 34 32 32 33 30 27 25 23 22 19 20 24 20 17 22 21 21 18 14 14 16 17 14 12 12 10 13 10 8
8 6 3 2 2 2 2 4 7 3 3 5 13 29 36 42 42 42 40 39 35 31 33 31 28 27 24 25 23 21 20 21 19 18 18 23 19 16 14 15 13 20 14 17 11 11 12 11 8
5 3 8 6 4 3 1 5 5 3 5 4 6 26 39 40 42 40 40 36 35 33 33 31 29 26 23 24 23 22 21 23 22 22 22 22 23 21 21 22 17 18 17 17 15 14 15 14 11
4 7 4 4 5 5 1 4 6 5 3 16 25 33 11 33 41 39 38 36 35 36 35 33 31 29 24 22 22 22 21 24 24 24 24 25 26 25 22 22 24 22 19 16 15 17 20 17 15
4 8 5 2 3 5 4 4 7 14 23 24 35 39 40 28 6 3 26 34 37 37 35 33 32 32 28 23 22 22 22 25 26 24 25 27 28 26 22 24 22 24 20 20 19 20 21 17 16
2 0 6 4 1 3 2 4 2 12 14 18 22 31 42 44 28 13 25 14 28 34 37 34 32 33 31 27 23 23 23 24 24 24 23 28 27 27 27 26 25 25 26 25 22 21 23 20 20
1 4 3 4 1 2 3 1 2 5 6 8 14 26 29 22 27 8 13 12 25 22 27 36 36 38 34 30 25 23 24 26 24 24 26 26 29 31 29 28 27 27 27 29 28 26 24 25 23
7 7 5 4 5 5 3 4 3 6 7 10 10 9 21 22 20 20 16 11 17 15 25 33 34 35 36 31 30 31 25 26 29 26 26 28 25 24 30 32 30 27 28 28 29 29 27 26 27
6 3 4 5 5 1 5 4 3 4 6 17 16 12 15 24 23 25 20 17 12 7 12 15 13 20 28 25 22 32 31 30 30 31 28 27 27 25 21 24 33 32 24 27 29 29 29 30 28
Wind_Direction
30 324 351 14 43 50 351 78 143 128 80 90 122 122 120 107 162 185 147 160 163 159 155 157 154 152 156 156 151 150 147 145 148 148 149 149 150 148 148 152 155 161 176 183 178 171 161 161 164
61 89 55 29 60 34 335 321 69 97 103 102 106 100 58 87 101 137 151 162 162 157 157 156 155 153 154 155 154 156 155 151 151 154 151 151 151 152 152 154 155 160 163 173 178 174 166 164 167
57 85 68 92 71 110 298 4 104 106 111 87 94 85 107 112 132 142 154 163 162 157 154 154 154 156 156 156 157 159 157 155 155 154 158 154 156 157 156 151 149 144 152 153 165 170 171 172 172
87 83 97 113 179 187 147 261 72 100 65 32 33 63 91 129 145 155 153 164 165 158 158 155 157 158 158 157 157 159 160 163 163 163 161 161 160 157 157 148 139 143 145 148 159 161 162 174 161
32 103 107 119 134 159 232 258 110 93 93 74 70 106 120 156 153 154 154 165 168 163 164 162 164 159 156 158 159 163 168 170 173 166 165 167 163 160 158 146 146 145 142 151 162 160 155 160 151
345 105 44 69 60 153 201 154 113 89 84 93 90 97 122 161 158 153 154 162 168 163 164 165 166 166 166 167 168 169 169 166 167 167 172 175 165 160 152 148 151 148 144 157 161 163 154 153 150
207 127 201 116 70 43 104 117 102 101 89 79 118 116 140 157 157 156 159 159 166 167 166 168 168 169 167 168 170 171 170 168 169 176 179 177 173 159 158 158 154 146 149 148 155 153 154 156 160
255 104 100 94 141 65 26 107 117 108 149 138 152 160 161 162 163 159 160 158 161 170 173 172 173 171 168 170 171 171 177 177 179 183 181 176 170 160 159 154 144 141 154 127 152 157 152 156 170
199 66 136 169 145 176 108 106 128 137 140 187 177 148 159 163 165 159 160 160 165 168 173 183 179 169 169 173 178 191 192 179 166 172 168 158 163 155 145 146 144 152 171 154 150 150 164 173 166
104 92 53 154 159 149 144 131 153 121 139 139 141 127 141 161 166 164 168 168 169 171 172 183 182 178 180 188 205 209 202 197 192 169 161 161 162 165 156 162 190 188 185 177 165 165 176 168 159
137 130 145 122 145 150 155 153 167 137 206 203 173 158 148 157 170 173 179 183 185 184 180 184 185 196 191 192 197 195 204 199 198 181 161 168 180 187 190 156 246 195 187 177 177 175 174 180 167
107 119 161 175 168 160 166 155 153 167 190 175 166 156 161 170 178 179 184 189 187 191 193 190 188 198 193 194 197 203 199 201 197 185 176 172 175 191 207 290 212 224 195 187 174 184 172 172 115
125 188 185 181 178 177 149 162 175 159 137 154 157 169 176 181 183 191 200 198 202 203 194 192 191 196 208 194 188 199 204 186 190 185 185 185 168 165 179 291 200 210 212 192 159 152 171 163 154
154 217 197 205 194 196 161 170 123 152 148 159 166 174 178 186 195 195 198 200 210 215 207 201 196 187 178 185 181 185 173 175 185 188 191 190 166 199 248 290 187 176 169 170 154 147 160 146 149
307 216 330 205 159 155 153 112 147 161 158 163 173 181 185 195 199 200 203 205 212 214 204 202 202 195 189 181 181 184 180 181 181 183 195 198 195 186 115 182 162 168 177 169 156 171 141 167 158
332 116 188 247 187 203 148 249 163 167 164 171 182 184 188 195 204 206 203 205 211 206 207 203 197 198 196 196 193 186 181 162 172 182 186 189 191 201 202 138 163 165 163 160 135 134 181 231 260
354 261 196 117 219 229 146 229 197 178 176 178 188 193 198 206 207 205 205 204 209 204 205 204 203 204 199 194 200 201 203 179 171 182 176 182 190 207 218 203 184 181 179 183 185 208 221 178 255
308 200 223 182 230 228 229 273 178 186 181 182 185 189 192 194 198 201 206 208 212 203 204 208 207 207 203 194 191 205 195 203 202 190 189 183 183 208 206 202 204 191 181 188 181 196 194 201 235
256 30 303 238 200 165 217 238 206 200 201 180 184 182 188 196 202 199 203 208 210 207 204 207 209 208 202 198 193 218 215 200 205 205 204 190 199 210 217 222 216 211 200 194 209 214 201 230 262
320 313 294 296 218 127 186 262 243 196 208 191 187 186 190 192 195 195 199 205 208 204 206 210 212 209 204 207 210 221 231 215 212 209 197 196 194 207 199 203 193 195 195 204 192 233 244 240 243
313 268 282 233 344 327 161 324 335 215 202 203 195 193 193 192 193 192 196 201 206 206 205 210 213 208 211 212 212 216 214 211 212 213 202 204 204 208 201 192 192 207 203 219 209 231 227 213 237
314 206 271 236 63 262 88 280 317 245 194 198 189 190 193 194 195 192 197 196 205 211 212 208 210 212 219 214 216 222 220 212 209 208 207 208 201 202 207 206 210 201 196 223 215 221 202 210 214
242 256 67 74 105 50 92 91 264 8 247 226 198 193 195 197 197 197 202 206 208 211 210 212 213 215 223 220 223 227 231 227 221 214 220 216 209 214 214 216 209 207 213 204 194 190 206 212 212
254 29 37 36 48 16 14 122 298 203 217 268 228 210 196 195 201 206 206 204 206 208 212 215 216 220 221 224 228 229 234 225 223 219 223 218 217 223 222 224 215 210 223 218 224 208 217 218 213
83 53 351 2 2 233 318 64 250 282 321 72 70 64 159 195 201 201 199 205 208 210 215 218 219 220 222 221 223 229 233 226 229 229 228 226 220 216 222 220 220 219 221 222 227 226 225 219 224
204 146 158 285 209 264 347 40 3 75 85 72 75 81 65 54 33 238 201 207 214 221 219 220 221 223 222 226 225 227 231 228 230 231 236 234 227 226 230 227 226 229 227 228 224 226 226 222 231
257 300 193 136 320 61 328 342 143 39 47 53 65 77 79 63 54 13 306 225 221 228 230 229 228 228 224 226 230 229 231 226 228 229 235 234 235 234 233 229 226 232 230 230 228 229 230 236 234
116 198 34 12 87 53 302 323 246 26 37 47 58 88 91 95 98 129 349 268 220 228 235 236 231 233 229 227 231 234 234 237 235 232 235 236 236 240 239 232 227 225 232 233 234 235 233 232 233
356 1 25 109 137 152 184 261 226 200 146 92 90 105 122 83 85 67 44 29 263 271 256 234 241 236 236 234 240 246 241 241 240 239 237 237 239 238 238 237 236 233 227 231 234 236 233 232 232
107 26 79 108 287 33 135 272 233 58 81 106 84 111 105 95 81 68 56 59 57 135 211 212 245 265 247 249 258 255 258 253 249 244 240 236 236 230 234 236 235 235 241 237 235 239 241 236 236
Height
1514 1512 1510 1508 1517 1523 1528 1516 1501 1505 1507 1508 1509 1514 1518 1518 1521 1535 1527 1531 1536 1539 1542 1545 1548 1551 1553 1555 1557 1558 1560 1562 1564 1567 1569 1571 1572 1574 1576 1577 1578 1578 1579 1580 1582 1583 1584 1585 1585
1514 1513 1513 1514 1531 1543 1536 1517 1514 1509 1509 1510 1512 1514 1517 1524 1521 1524 1530 1534 1537 1540 1543 1545 1548 1551 1553 1555 1557 1560 1562 1564 1566 1569 1571 1572 1574 1575 1577 1577 1577 1578 1579 1581 1582 1583 1584 1584 1584
1515 1513 1517 1527 1540 1544 1540 1521 1516 1515 1515 1515 1515 1517 1521 1525 1525 1527 1531 1535 1538 1542 1544 1547 1549 1553 1554 1556 1559 1560 1563 1565 1567 1570 1572 1573 1574 1576 1577 1577 1577 1577 1578 1580 1581 1582 1582 1583 1584
1515 1515 1522 1529 1544 1539 1535 1526 1517 1516 1518 1520 1520 1522 1524 1525 1524 1528 1533 1537 1540 1543 1546 1548 1550 1553 1556 1558 1560 1561 1563 1565 1568 1570 1572 1573 1575 1577 1577 1577 1577 1578 1579 1581 1581 1581 1582 1583 1583
1515 1517 1528 1531 1530 1526 1521 1521 1515 1517 1520 1517 1521 1527 1527 1530 1529 1530 1534 1538 1542 1544 1547 1549 1551 1554 1556 1558 1560 1562 1563 1566 1568 1571 1572 1573 1575 1577 1577 1578 1578 1578 1579 1581 1581 1582 1582 1583 1584
1515 1517 1532 1533 1522 1518 1519 1516 1520 1517 1523 1523 1526 1528 1531 1528 1529 1533 1536 1539 1543 1545 1548 1551 1553 1555 1556 1559 1561 1563 1564 1566 1569 1571 1571 1572 1575 1577 1577 1578 1578 1579 1580 1580 1582 1582 1583 1584 1583
1510 1516 1524 1520 1521 1518 1515 1515 1519 1522 1522 1524 1525 1527 1533 1531 1532 1534 1538 1540 1543 1547 1549 1551 1554 1556 1558 1560 1562 1564 1566 1568 1570 1571 1571 1572 1574 1575 1576 1577 1578 1580 1580 1581 1582 1583 1585 1586 1586
1507 1508 1516 1519 1523 1522 1513 1516 1520 1517 1519 1520 1520 1525 1527 1530 1533 1536 1541 1542 1544 1546 1550 1551 1555 1557 1558 1560 1563 1565 1566 1568 1570 1571 1571 1571 1573 1575 1576 1577 1578 1579 1580 1582 1584 1586 1588 1587 1588
1504 1516 1526 1521 1519 1516 1513 1515 1518 1517 1517 1518 1521 1524 1528 1529 1535 1536 1541 1544 1545 1548 1550 1552 1555 1557 1559 1560 1563 1565 1566 1568 1570 1571 1571 1571 1573 1574 1577 1578 1578 1579 1579 1582 1585 1587 1588 1588 1588
1501 1518 1511 1506 1508 1509 1510 1512 1514 1518 1519 1519 1522 1525 1529 1533 1534 1535 1538 1542 1545 1547 1549 1552 1556 1557 1559 1560 1561 1563 1566 1568 1569 1571 1571 1571 1572 1573 1575 1577 1578 1579 1579 1582 1583 1584 1585 1587 1589
1500 1511 1504 1504 1506 1506 1507 1509 1510 1515 1520 1513 1516 1522 1528 1534 1535 1534 1537 1539 1541 1545 1548 1551 1555 1557 1559 1559 1561 1563 1565 1567 1569 1571 1571 1570 1571 1573 1575 1577 1578 1579 1580 1582 1581 1583 1587 1588 1588
1501 1499 1500 1502 1502 1503 1505 1506 1509 1510 1510 1510 1514 1522 1528 1532 1532 1531 1534 1537 1540 1542 1546 1550 1554 1556 1558 1559 1562 1563 1565 1566 1569 1571 1571 1571 1571 1572 1574 1576 1577 1579 1581 1580 1581 1583 1586 1587 1588
1498 1498 1498 1498 1500 1501 1502 1504 1504 1509 1510 1514 1519 1523 1526 1530 1532 1531 1533 1536 1538 1541 1545 1549 1552 1554 1556 1558 1560 1562 1564 1565 1568 1569 1570 1570 1572 1573 1573 1574 1575 1577 1580 1580 1580 1583 1585 1588 1589
1495 1495 1496 1496 1498 1500 1501 1503 1504 1511 1509 1512 1516 1519 1522 1526 1528 1532 1533 1535 1537 1540 1544 1547 1550 1552 1554 1557 1559 1561 1562 1564 1566 1568 1569 1571 1572 1573 1571 1572 1573 1576 1578 1580 1581 1583 1585 1587 1589
1498 1499 1497 1496 1496 1499 1499 1507 1506 1506 1507 1510 1513 1515 1518 1521 1525 1525 1527 1532 1534 1537 1542 1544 1547 1551 1553 1555 1558 1559 1561 1563 1565 1567 1569 1570 1572 1572 1569 1571 1575 1577 1578 1580 1581 1584 1588 1587 1590
1501 1500 1513 1497 1494 1495 1497 1517 1502 1503 1506 1509 1512 1513 1516 1519 1520 1523 1526 1530 1532 1536 1538 1542 1545 1548 1551 1554 1556 1559 1560 1562 1564 1565 1567 1569 1571 1572 1573 1575 1577 1578 1579 1579 1582 1586 1586 1588 1586
1509 1520 1510 1503 1493 1493 1497 1505 1498 1500 1502 1505 1509 1510 1513 1514 1518 1521 1523 1526 1528 1532 1535 1539 1542 1545 1548 1551 1554 1557 1559 1561 1562 1564 1567 1569 1570 1572 1574 1575 1577 1578 1580 1580 1582 1585 1585 1582 1586
1523 1512 1501 1508 1496 1494 1495 1496 1494 1497 1499 1501 1504 1507 1508 1510 1511 1516 1520 1524 1526 1530 1534 1538 1540 1543 1547 1549 1552 1555 1557 1558 1560 1562 1564 1568 1570 1571 1573 1575 1576 1578 1580 1581 1583 1585 1587 1588 1584
1510 1501 1505 1492 1490 1494 1497 1494 1495 1492 1496 1499 1501 1503 1505 1506 1509 1514 1517 1521 1524 1528 1532 1535 1538 1541 1544 1547 1550 1552 1554 1555 1557 1561 1564 1565 1567 1569 1572 1574 1576 1577 1579 1582 1582 1583 1584 1586 1584
1498 1502 1505 1494 1487 1493 1495 1495 1487 1489 1489 1491 1494 1498 1501 1505 1508 1512 1515 1518 1520 1524 1529 1533 1536 1539 1542 1546 1549 1552 1553 1555 1555 1557 1561 1564 1565 1566 1569 1571 1573 1574 1578 1579 1579 1579 1581 1582 1581
1500 1505 1505 1504 1492 1490 1492 1501 1493 1482 1483 1489 1490 1491 1496 1499 1502 1508 1511 1513 1517 1521 1525 1530 1533 1537 1540 1545 1550 1552 1553 1554 1554 1556 1558 1560 1563 1565 1567 1570 1572 1573 1574 1576 1576 1579 1579 1580 1579
1509 1493 1494 1495 1506 1524 1495 1535 1500 1482 1482 1483 1487 1492 1494 1498 1502 1505 1506 1511 1514 1518 1523 1528 1532 1536 1540 1544 1547 1549 1550 1551 1553 1554 1556 1559 1561 1563 1565 1567 1569 1570 1573 1574 1575 1577 1579 1579 1578
1501 1488 1492 1493 1501 1507 1506 1524 1504 1488 1486 1483 1483 1485 1489 1491 1495 1501 1504 1507 1513 1518 1521 1526 1530 1534 1537 1540 1543 1545 1547 1549 1552 1554 1556 1558 1559 1562 1563 1565 1565 1567 1570 1573 1573 1575 1577 1576 1578
1484 1488 1501 1506 1517 1535 1514 1517 1515 1500 1486 1478 1476 1476 1482 1488 1494 1500 1504 1509 1513 1516 1518 1521 1526 1530 1534 1537 1540 1543 1544 1546 1549 1551 1552 1554 1557 1559 1561 1562 1563 1564 1566 1568 1570 1573 1575 1575 1576
1487 1513 1545 1540 1548 1539 1514 1515 1509 1487 1482 1487 1483 1484 1491 1490 1493 1500 1508 1511 1512 1513 1516 1521 1524 1526 1529 1531 1535 1538 1542 1544 1545 1547 1548 1550 1553 1554 1557 1558 1559 1560 1562 1565 1566 1568 1571 1573 1574
1494 1510 1542 1540 1553 1535 1507 1521 1519 1500 1491 1490 1487 1488 1496 1504 1511 1518 1513 1510 1509 1513 1513 1515 1521 1524 1527 1528 1530 1533 1537 1540 1543 1544 1545 1545 1547 1549 1553 1555 1556 1557 1558 1560 1562 1564 1567 1569 1570
1493 1507 1496 1519 1524 1529 1521 1510 1500 1500 1496 1494 1492 1487 1493 1506 1513 1514 1519 1517 1514 1512 1515 1514 1517 1520 1523 1524 1526 1527 1531 1533 1536 1539 1541 1541 1543 1546 1548 1551 1552 1554 1555 1557 1559 1560 1563 1565 1567
1486 1484 1512 1524 1537 1546 1532 1522 1522 1512 1507 1500 1497 1493 1500 1511 1521 1534 1522 1511 1511 1511 1512 1515 1517 1520 1519 1519 1519 1521 1523 1528 1531 1533 1536 1537 1538 1540 1542 1546 1547 1549 1550 1552 1555 1556 1559 1560 1562
1501 1505 1503 1509 1523 1547 1551 1540 1509 1513 1505 1501 1501 1502 1507 1511 1521 1524 1516 1510 1507 1506 1506 1509 1505 1513 1520 1519 1520 1523 1521 1522 1525 1527 1529 1532 1534 1535 1536 1539 1542 1544 1546 1547 1550 1552 1555 1557 1558
1494 1502 1511 1529 1522 1527 1537 1536 1505 1513 1509 1505 1508 1511 1511 1512 1519 1518 1518 1513 1510 1507 1508 1488 1512 1518 1519 1520 1515 1522 1527 1522 1521 1523 1524 1526 1527 1530 1531 1532 1535 1538 1539 1543 1546 1547 1549 1551 1553